Regional Weather Roundup
Issued by NWS

Home | Current Version | Previous Version | Text Only | Print | Product List | Glossary On
Versions: 1 2 3 4 5 6 7 8 9 10 11 12 13 14 15 16 17 18 19 20 21 22 23 24 25 26 27 28 29 30 31 32 33 34 35 36 37 38 39 40 41 42 43 44 45 46 47 48 49 50
896
ASCA42 TJSJ 102210
RWRPR
PUERTO RICO/U.S. VIRGIN ISLANDS HOURLY WEATHER ROUNDUP
NATIONAL WEATHER SERVICE SAN JUAN PR
600 PM AST WED FEB 10 2016

PRZ001-004-102300-
PUERTO RICO

CITY           SKY/WX    TMP DP  RH WIND       PRES   REMARKS
SAN JUAN LMM   PTCLDY    81  70  69 E12       30.06R
PONCE          MOCLDY    82  72  69 S12       30.04R
AGUADILLA      MOCLDY    81  72  74 E10       30.08R
CEIBA          CLEAR     79  70  73 E8        30.09R
$$

PRZ006-007-102300-
U.S. VIRGIN ISLANDS

CITY           SKY/WX    TMP DP  RH WIND       PRES   REMARKS
CHARLOTTE AMA  MOCLDY    79  70  73 SE9       30.07R
CHRISTIANSTED  PTCLDY    81  68  65 E8        30.07R
$$

HOURLY WEATHER ROUNDUP FOR THE NEWS MEDIA

CITY           SKY/WX    TMP DP  RH WIND       PRES   REMARKS
ORLANDO        SUNNY     56  17  21 W22G30    30.18R
NEW YORK       MOCLDY    38  20  48 W20       29.68R WCI  28
NEWARK         MOCLDY    37  18  46 W20       29.67R WCI  27
CHICAGO        MOSUNNY   17   2  51 NW13      30.03R WCI   4
HARTFORD       CLOUDY    33  32  96 S6        29.59R WCI  28
BOSTON         CLOUDY    35  30  82 SW6       29.58R HAZE    WCI  30
DALLAS         SUNNY     72  30  21 SW9G20    30.12F
PHILADELPHIA   MOCLDY    34  15  46 W15       29.78R WCI  24
LOS ANGELES    MOSUNNY   76  44  32 W10       30.08F
WASHINGTON DC  CLOUDY    30  12  47 NW22G29   29.83R WCI  17



USA.gov is the U.S. government's official web portal to all federal, state and local government web resources and services.